Home > Weather > Cuiabá > Past weeks

Flag for Brazil Weather for the Past 2 Weeks in Cuiabá, Mato Grosso, Brazil

Now
81 °F

Scattered clouds.


Feels Like: 85 °F
Forecast: N/A
Wind: No wind

Location: Cuiaba Aeroporto

Current Time: Feb 12, 2016 at 8:31:49 PM

Latest Report: Feb 12, 2016 at 8:00 PM


Visibility: N/A

Pressure: 29.80 "Hg

Humidity: 79%

Dew point: 73 °F

Location of CuiabáLocation

Historic Weather in Cuiabá — Graph

°F

Cuiabá Temperature Yesterday

Maximum temperature yesterday: 97 °F (at 4:00 PM)
Minimum temperature yesterday: 75 °F (at 4:00 AM)
Average temperature yesterday: 85 °F

High & Low Weather Summary for the Past Weeks

 TemperatureHumidityPressure
High97 °F (Feb 8, 3:00 PM)100% (Feb 5, 1:00 AM)30.04 "Hg (Feb 5, 1:00 AM)
Low70 °F (Feb 5, 1:00 AM)39% (Feb 12, 1:00 PM)29.21 "Hg (Jan 30, 3:00 PM)
Average82 °F75%29.90 "Hg
* Reported Jan 28 7:00 PM — Feb 12 7:00 PM, Cuiabá, Weather by CustomWeather, © 2016

Note: Actual official high and low records may vary slightly from our data, if they occured in-between our weather recording intervals... More about our weather records

Advertising

Cuiabá Weather History for the Previous 24 Hours

 ConditionsComfort  
Time TempWeatherWind HumidityBarometerVisibility
7:00 PM
Fri, Feb 12
82 °FPassing clouds.No wind74%29.80 "HgN/A
6:00 PM84 °FScattered clouds.6 mph66%29.80 "HgN/A
5:00 PM84 °FPartly sunny.7 mph74%29.80 "HgN/A
4:00 PM82 °FLight rain. Partly sunny.16 mph70%29.80 "HgN/A
3:00 PM95 °FPartly sunny.No wind39%29.83 "HgN/A
2:00 PM97 °FScattered clouds.8 mph39%29.86 "HgN/A
1:00 PM97 °FScattered clouds.6 mph39%29.89 "HgN/A
12:00 PM93 °FScattered clouds.5 mph47%29.92 "Hg10 mi
11:00 AM91 °FPassing clouds.6 mph59%29.95 "HgN/A
10:00 AM88 °FSunny.9 mph62%29.95 "Hg10 mi
9:00 AM84 °FSunny.6 mph70%29.95 "Hg10 mi
8:00 AM81 °FSunny.7 mph79%29.92 "Hg10 mi
7:00 AM77 °FClear.6 mph89%29.89 "Hg10 mi
6:00 AM77 °FClear.5 mph89%29.89 "Hg10 mi
5:00 AM81 °FClear.6 mph79%29.86 "Hg10 mi
4:00 AM81 °FClear.6 mph79%29.89 "Hg10 mi
3:00 AM81 °FClear.5 mph84%29.86 "Hg10 mi
2:00 AM81 °FClear.6 mph84%29.89 "Hg10 mi
1:00 AM82 °FClear.3 mph84%29.89 "Hg10 mi
12:00 AM82 °FClear.3 mph84%29.86 "Hg10 mi
11:00 PM
Thu, Feb 11
82 °FClear.2 mph84%29.86 "Hg10 mi
10:00 PM84 °FClear.5 mph79%29.86 "Hg10 mi
9:00 PM82 °FPassing clouds.6 mph70%29.83 "HgN/A
8:00 PM84 °FPassing clouds.5 mph62%29.80 "HgN/A
Weather by CustomWeather, © 2016

See weather overviewHow to use our weather pages